Weather in Povodimovo

Russia / Republic of Mordovia     54°27′39″N   46°18′20″E
temp.,
°C
wind,
m/s
gust,
m/s
humid.,
%
clouds,
%
prec.,
mm/h
press.,
hPa
HPBL,
m
3 march, wed
wed300:00−6wnw499639 0.0 1003147
03:00−5wnw5119657 0.1 1004267
06:00−4nw6119486 0.1 1004581
09:00−6nw7109093 0.3 1006707
12:00−6nw71192100 0.2 1007677
15:00−5nw7109099 0.3 1008685
18:00−6wnw61192100 0.1 1009771
21:00−6wnw51190100 0.2 1010555
4 march, thu
thu400:00−9wsw5129562 0.0 1008214
03:00−6wsw7149378 0.1 1006459
06:00−4wsw81494100 0.3 1003743
09:00−3wsw91592100 0.6 1001763
12:00−1wsw101694100 0.9 997998
15:000w11179299 1.1 9971200
18:00−1w71481100 0.5 999744
21:00−3w51187100 0.5 1001325
5 march, fri
fri500:00−4wsw3691100 0.0 1000153
03:00−5wsw1197100 0.4 100021
06:00−5n2397100 1.5 1000149
09:00−5n4795100 2.2 1001336
12:00−5n4692100 0.2 1004478
15:00−6nnw459197 0.3 1007460
18:00−12nw229422 0.0 100921
21:00−13sw128911 0.0 101221
6 march, sat
sat600:00−13sw339115 0.0 101225
03:00−12ssw349751 0.0 101274
06:00−12sw4897100 0.1 1012197
09:00−9w5994100 0.1 1012374
12:00−7nw5891100 0.1 1011584
15:00−8nw5889100 0.1 1011637
18:00−12nw349696 0.0 101270
21:00−16nw349691 0.1 101463
7 march, sun
sun700:00−19wnw33970 0.0 101428
03:00−19wsw349931 0.0 101469
06:00−20wsw469953 0.0 101490
09:00−15sw6119363 0.0 1012280
12:00−10ssw8138393 0.0 1009651
15:00−8ssw10168797 0.1 1004998
18:00−7sw101792100 0.8 10001160
21:00−6sw101793100 1.8 996947